SCP
0 0 0 0 0 0 0 0 0 0 0 0 0 0 0 0 0 0 0 0 0 0 0 0 0 0 0 0 0 0 0 1 1 1 0 0 0 0 0 0 0 0 0 0
0 0 0 0 0 0 0 0 0 0 0 0 0 0 0 0 0 0 0 0 0 0 0 0 0 0 0 0 0 0 0 0 1 0 0 0 0 0 0 0 0 0 0 0
0 0 0 0 0 0 0 0 0 0 0 0 0 0 0 0 0 0 0 0 0 0 0 0 0 0 0 0 0 0 0 0 0 0 0 0 0 0 0 0 0 0 0 0
0 0 0 0 0 0 0 0 0 0 0 0 0 0 0 0 0 0 0 0 0 0 0 0 0 0 0 0 0 0 0 0 0 0 0 0 0 0 0 0 0 0 0 0
0 0 0 0 0 0 0 0 0 0 0 0 0 0 0 0 0 0 0 0 0 0 0 0 0 0 0 0 0 0 0 0 0 0 0 0 0 0 0 0 0 0 0 0
0 0 0 0 0 0 0 0 0 0 0 0 0 0 0 0 0 0 0 0 0 0 0 0 0 0 0 0 0 0 0 0 0 0 0 0 0 0 0 0 0 0 0 0
0 0 0 0 0 0 0 0 0 0 0 0 0 0 0 0 0 0 0 0 0 0 0 0 0 0 0 0 0 0 0 0 0 0 0 0 0 0 0 0 0 0 0 0
0 0 0 0 0 0 0 0 0 0 0 0 0 0 0 0 0 0 0 0 0 0 0 0 0 0 0 0 0 0 0 0 0 0 0 0 0 0 0 0 0 0 0 0
0 0 0 0 0 0 0 0 0 0 0 0 0 0 0 0 0 0 0 0 0 0 0 0 0 0 0 0 0 0 0 0 0 0 0 0 0 0 0 0 0 0 0 0
0 0 0 0 0 0 0 0 0 0 0 0 0 0 0 0 0 0 0 0 0 0 0 0 0 0 0 0 0 0 0 0 0 0 0 0 0 0 0 0 0 0 0 0
0 0 0 0 0 0 0 0 0 0 0 0 0 0 0 0 0 0 0 0 0 0 0 0 0 0 0 0 0 0 0 0 0 0 0 0 0 0 0 0 0 0 0 0
0 0 0 0 0 0 0 0 0 0 0 0 0 0 0 0 0 0 0 0 0 0 0 0 0 0 0 0 0 0 0 0 0 0 0 0 0 0 0 0 0 0 0 0
0 0 0 0 0 0 0 0 0 0 0 0 0 0 0 0 0 0 0 0 0 0 0 0 0 0 0 0 0 0 0 0 0 0 0 0 0 0 0 0 0 0 0 0
0 0 0 0 0 0 0 0 0 0 0 0 0 0 0 0 0 0 0 0 0 0 0 0 0 0 0 0 0 0 0 0 0 0 0 0 0 0 0 0 0 0 0 0
0 0 0 0 0 0 0 0 0 0 0 0 0 0 0 0 0 0 0 0 0 0 0 0 0 0 0 0 0 0 0 0 0 0 0 0 0 0 0 0 0 0 0 0
0 0 0 0 0 0 0 0 0 0 0 0 0 0 0 0 0 0 0 0 0 0 0 0 0 0 0 0 0 0 0 0 0 0 0 0 0 0 0 0 0 0 0 0
0 0 0 0 0 0 0 0 0 0 0 0 0 0 0 0 0 0 0 0 0 0 0 0 0 0 0 0 0 0 0 0 0 0 0 0 0 0 0 0 0 0 0 0
0 0 0 0 0 0 0 0 0 0 0 0 0 0 0 0 0 0 0 0 0 0 0 0 0 0 0 0 0 0 0 0 0 0 0 0 0 0 0 0 0 0 0 0
0 0 0 0 0 0 0 0 0 0 0 0 0 0 0 0 0 0 0 0 0 0 0 0 0 0 0 0 0 0 0 0 0 0 0 0 0 0 0 0 0 0 0 0
0 0 0 0 0 0 0 0 0 0 0 0 0 0 0 0 0 0 0 0 0 0 0 0 0 0 0 0 0 0 0 0 0 0 0 0 0 0 0 0 0 0 0 0
0 0 0 0 0 0 0 0 0 0 0 0 0 0 0 0 0 0 0 0 0 0 0 0 0 0 0 0 0 0 0 0 0 0 0 0 0 0 0 0 0 0 0 0
0 0 0 0 0 0 0 0 0 0 0 0 0 0 0 0 0 0 0 0 0 0 0 0 0 0 0 0 0 0 0 0 0 0 0 0 0 0 0 0 0 0 0 0
0 0 0 0 0 0 0 0 0 0 0 0 0 0 0 0 0 0 0 0 0 0 0 0 0 0 0 0 0 0 0 0 0 0 0 0 0 0 0 0 0 0 0 0
0 0 0 0 0 0 0 0 0 0 0 0 0 0 0 0 0 0 0 0 0 0 0 0 0 0 0 0 0 0 0 0 0 0 0 0 0 0 0 0 0 0 0 0
0 0 0 0 0 0 0 0 0 0 0 0 0 0 0 0 0 0 0 0 0 0 0 0 0 0 0 0 0 0 0 0 0 0 0 0 0 0 0 0 0 0 0 0
0 0 0 0 0 0 0 0 0 0 0 0 0 0 0 0 0 0 0 0 0 0 0 0 0 0 0 0 0 0 0 0 0 0 0 0 0 0 0 0 0 0 0 0
Wind_Speed
2 3 8 11 11 6 4 5 6 6 4 4 8 11 10 6 6 6 6 5 6 6 5 4 4 4 5 4 5 5 4 3 3 2 2 2 2 2 2 2 3 2 2 2
1 9 11 6 6 6 6 7 7 6 3 4 6 10 9 7 8 8 8 7 7 5 3 3 4 4 5 5 5 5 4 4 3 3 2 2 2 2 2 1 2 2 2 2
9 7 6 7 7 8 9 10 9 6 4 3 3 7 6 5 4 5 6 6 6 6 6 4 4 4 5 5 5 5 4 4 3 3 3 2 1 1 0 1 1 2 2 2
7 6 5 6 8 8 10 7 7 5 3 4 2 5 6 5 4 5 6 5 5 5 4 4 5 5 5 5 4 4 4 4 4 4 4 5 3 2 2 2 1 1 2 2
6 4 5 8 9 8 7 3 4 3 3 4 3 4 8 3 5 7 6 6 5 5 5 6 6 6 5 4 4 4 4 3 3 4 5 4 3 2 1 1 1 1 1 1
7 4 5 5 3 5 3 1 1 2 1 6 7 7 8 6 9 6 6 6 5 5 5 5 4 4 3 3 3 4 5 4 3 3 4 4 4 3 3 2 2 1 0 0
5 5 4 3 2 1 3 4 1 1 2 8 4 6 10 6 6 7 7 6 5 4 4 4 4 4 4 4 4 4 5 4 4 4 4 4 4 4 5 4 3 2 1 1
3 6 4 3 5 6 6 7 7 6 6 4 3 8 7 4 3 4 5 4 4 3 3 4 5 5 5 5 4 4 5 4 5 5 4 3 4 3 2 3 3 3 2 2
3 6 3 3 3 5 5 6 5 3 2 3 5 5 5 1 1 3 3 3 2 2 3 3 3 4 4 5 4 5 5 4 4 5 4 3 3 3 2 2 2 2 2 2
3 5 5 3 1 1 4 5 4 4 5 5 5 5 5 4 4 4 4 3 2 1 2 3 3 3 3 3 3 3 3 4 4 4 4 3 3 3 3 3 2 2 2 2
2 3 4 2 4 5 2 3 3 4 4 5 4 6 5 6 6 5 4 3 3 2 2 2 2 2 2 2 2 3 3 2 3 3 3 3 3 3 3 3 3 3 3 3
1 2 4 6 5 3 4 5 5 4 5 4 3 6 2 2 3 4 3 2 1 1 2 2 2 2 2 2 2 3 2 2 2 3 3 3 3 3 3 3 3 3 3 3
1 2 2 4 3 1 1 2 3 2 2 4 4 6 2 3 4 2 2 2 1 1 1 1 2 2 2 2 2 2 2 2 2 3 3 3 3 3 3 2 3 3 3 3
2 3 6 8 6 3 5 6 4 3 4 5 6 5 3 2 1 1 1 1 1 2 2 2 1 1 0 1 1 2 2 2 2 3 3 3 3 3 2 2 2 3 3 3
1 4 6 8 7 5 7 8 8 9 8 7 7 6 6 4 3 2 1 1 2 1 1 1 1 1 0 0 1 1 1 1 2 3 3 3 2 2 2 2 2 2 2 2
1 4 4 6 5 5 8 8 7 9 8 7 5 6 3 1 0 0 1 1 1 1 1 1 1 1 1 1 1 1 1 1 3 3 3 3 3 3 3 3 2 2 2 2
3 3 2 5 3 3 7 6 6 4 3 4 7 6 1 1 1 3 2 1 1 2 2 2 2 2 2 2 2 2 2 2 3 3 3 3 3 3 3 2 2 2 2 1
5 4 3 3 1 6 5 1 3 3 1 2 2 2 1 2 2 1 1 1 2 2 2 2 2 1 1 1 1 1 2 2 2 2 3 3 3 3 2 2 2 2 1 1
5 4 2 2 3 5 4 3 1 2 1 2 1 1 1 0 3 3 2 1 1 2 2 2 2 1 0 1 1 2 2 2 2 2 2 2 3 3 2 2 2 1 1 1
1 1 2 2 2 3 4 6 5 2 1 3 2 1 1 2 1 3 3 2 2 2 2 1 1 1 1 0 2 3 2 2 2 2 2 2 2 3 3 2 2 1 2 2
2 0 2 2 3 4 5 7 4 2 3 4 2 1 1 0 2 2 2 2 2 2 2 2 2 2 1 1 2 2 2 1 1 1 2 2 2 2 2 2 1 1 1 1
1 1 1 1 2 4 5 4 1 2 2 2 2 2 2 1 2 2 2 2 3 3 3 3 2 2 2 1 2 2 0 0 0 1 2 1 1 1 1 1 1 1 1 1
1 2 2 3 3 3 2 1 2 2 3 3 2 3 2 2 2 3 3 2 3 3 3 2 2 2 2 2 2 2 0 0 1 1 1 1 1 1 1 1 1 1 1 1
4 3 0 2 3 4 4 4 5 4 3 3 3 2 2 2 2 3 3 2 3 3 2 2 2 2 2 2 2 1 0 0 1 1 1 1 1 1 1 1 1 2 2 2
4 3 1 2 4 4 5 5 5 5 5 5 5 4 3 2 1 1 2 2 2 2 3 2 2 1 1 2 2 2 1 1 1 0 0 1 1 1 1 1 2 2 3 4
3 2 1 3 3 3 4 5 4 4 5 4 4 5 5 3 1 2 2 2 2 2 2 2 2 2 1 1 1 2 1 0 1 0 1 0 0 1 1 1 2 3 4 6
Wind_Direction
187 171 212 212 207 214 212 221 242 247 233 210 232 251 256 247 226 226 224 215 213 216 215 190 180 165 151 143 146 159 163 162 150 150 154 163 177 188 203 195 189 184 184 174
173 233 231 212 207 225 239 247 259 278 247 226 250 260 256 239 225 217 214 212 207 207 204 188 171 157 159 157 158 163 170 170 167 169 168 167 170 185 202 189 172 173 175 181
213 233 211 205 209 218 235 231 237 248 294 281 284 287 259 250 226 219 214 209 201 197 198 189 175 169 163 165 171 173 179 177 168 158 139 113 91 70 77 173 188 191 176 174
239 243 223 218 223 210 241 228 224 227 232 263 201 270 265 235 237 223 217 207 202 197 186 180 178 179 179 182 177 172 172 175 168 162 158 155 166 180 206 197 192 187 171 167
242 227 216 224 228 206 230 218 214 223 209 260 232 232 271 226 235 230 219 208 205 199 188 183 186 187 182 179 177 172 163 173 169 169 168 164 172 174 155 150 163 172 165 155
248 245 224 222 227 205 199 82 33 38 105 251 220 201 265 220 217 216 213 207 205 199 191 188 186 172 167 167 166 165 159 170 174 171 171 168 172 161 152 160 176 195 162 157
279 257 237 200 192 203 138 121 64 295 233 244 200 201 247 238 216 200 201 202 203 193 187 180 169 167 169 170 173 172 167 174 178 173 177 178 179 175 174 177 178 185 174 173
256 274 234 217 199 190 195 167 178 205 216 255 215 223 248 256 216 182 176 176 171 170 173 173 177 175 174 173 173 175 178 181 179 178 180 176 172 180 184 178 168 174 180 185
222 262 290 254 248 172 169 199 190 161 206 235 247 265 290 311 107 141 146 143 155 167 165 168 170 170 174 176 180 180 178 175 175 174 169 169 168 172 169 166 161 160 162 160
207 261 279 280 295 233 179 165 140 172 195 231 252 239 228 210 199 183 171 170 173 167 152 153 158 162 168 171 167 161 165 170 166 166 173 171 173 173 166 165 163 151 151 147
228 236 286 291 209 212 177 184 180 182 194 190 230 254 217 188 184 181 185 173 172 171 168 165 159 153 141 129 137 145 148 145 151 163 167 160 164 164 164 168 168 163 153 147
256 201 255 255 264 252 202 200 175 193 227 206 209 259 297 158 156 147 147 153 160 170 155 148 140 122 120 129 143 150 153 157 165 161 154 159 158 161 161 164 165 157 153 150
261 211 284 316 320 331 240 221 210 222 192 194 203 253 344 67 81 93 110 107 101 97 109 101 101 109 136 152 152 149 156 165 162 153 148 147 151 161 164 165 156 147 149 146
279 222 213 226 238 229 262 267 237 203 216 222 224 244 307 14 60 68 90 120 136 128 129 115 105 108 141 151 151 152 158 160 155 148 144 148 158 159 155 149 141 146 153 151
188 243 249 256 256 243 250 250 230 219 219 215 228 228 243 227 222 214 193 155 126 121 126 156 176 168 140 124 145 145 147 148 150 146 147 156 144 128 123 125 133 139 145 151
248 249 270 276 262 249 269 261 234 232 231 233 242 262 268 237 117 283 222 174 186 220 230 218 200 197 197 201 204 175 163 165 147 145 153 146 131 123 124 128 128 131 136 146
238 217 238 268 283 305 266 253 216 208 207 197 226 245 270 29 226 229 228 206 234 260 265 242 217 217 214 210 201 190 181 150 136 140 144 140 135 136 143 142 134 143 151 151
223 219 221 259 293 237 254 307 181 156 147 196 209 247 199 215 253 278 207 192 256 274 273 272 257 238 227 199 180 152 131 136 136 136 142 142 138 139 143 146 155 161 161 168
219 206 204 207 237 269 301 338 349 161 295 328 221 285 333 14 43 360 343 331 267 273 283 268 253 232 180 163 142 122 117 124 135 145 149 153 148 148 151 161 170 172 169 179
25 176 187 207 222 245 300 321 315 119 306 347 1 335 343 51 60 288 318 345 354 357 345 345 23 73 84 102 120 120 132 139 166 176 165 154 150 157 171 184 184 182 180 193
358 341 219 228 232 265 312 325 13 101 273 322 343 344 6 335 239 286 341 8 24 20 12 28 57 77 87 97 114 118 121 167 195 150 142 139 142 157 167 164 168 171 176 174
284 263 241 196 226 270 331 9 63 268 325 350 6 15 28 5 5 18 23 20 26 27 25 33 61 52 41 76 105 103 116 284 99 124 130 134 133 140 144 143 153 167 167 175
279 234 219 197 219 294 333 345 325 3 3 356 13 4 31 29 14 17 16 13 13 24 24 27 70 62 33 37 86 117 258 50 95 118 140 148 141 134 143 154 173 183 184 196
308 327 344 299 306 337 353 6 8 7 360 359 5 6 26 30 15 9 7 5 11 19 20 23 50 63 29 15 25 22 303 123 119 131 161 164 151 134 138 182 195 198 203 212
292 310 301 285 312 348 1 356 354 3 12 16 14 13 13 33 14 8 358 352 360 7 10 23 31 40 9 7 1 349 353 89 95 109 198 160 161 179 209 239 229 229 229 225
340 316 280 285 308 306 309 328 349 9 6 7 13 3 356 360 6 1 351 347 354 3 13 20 13 4 348 353 347 341 344 109 147 225 272 241 222 234 244 268 299 285 267 266